Regional Weather Roundup
Issued by NWS Albany, NY

Home | Current Version | Previous Version | Graphics & Text | Print | Product List | Glossary Off
Versions: 1 2 3 4 5 6 7 8 9 10 11 12 13 14 15 16 17 18 19 20 21 22 23 24 25 26 27 28 29 30 31 32 33 34 35 36 37 38 39 40 41 42 43 44 45 46 47 48 49 50

091
ASUS41 KALY 240310
RWRALY

NEW YORK STATE HOURLY WEATHER ROUNDUP
NATIONAL WEATHER SERVICE ALBANY NY
1000 PM EST THU FEB 23 2017

NOTE: "FAIR" INDICATES FEW OR NO CLOUDS BELOW 12,000 FEET WITH NO
SIGNIFICANT WEATHER AND/OR NO OBSTRUCTIONS TO VISIBILITY.

NYZ032-033-038>043-046>054-057>066-NYZ062>081-082-084-240400-
EAST


CITY           SKY/WX    TMP DP  RH WIND       PRES   REMARKS
ALBANY         PTCLDY    48  42  80 CALM      29.84R
GLENS FALLS    CLEAR     43  38  82 SW6       29.83R
POUGHKEEPSIE   PTCLDY    49  46  90 CALM      29.85S
NEWBURGH       MOCLDY    57  52  82 CALM      29.87S
MONTGOMERY     CLOUDY    51  47  86 CALM      29.85S
WHITE PLAINS   PTCLDY    48  46  93 CALM      29.88S FOG
ISLIP          PTCLDY    49  47  93 SW9       29.90R
NEW YORK CITY  PTCLDY    58  48  69 VRB5      29.88S
CENTRAL PARK   PTCLDY    63  52  67 VRB5      29.91S
$$

NYZ005>009-017-018-044>046-055-056-240400-
CENTRAL


CITY           SKY/WX    TMP DP  RH WIND       PRES   REMARKS
FULTON         PTCLDY    44  39  82 NW6       29.89R
SYRACUSE       MOCLDY    48  43  82 W6        29.88R
ROME           CLOUDY    44  43  96 NW6       29.88R
ELMIRA         PTCLDY    48  44  86 SE6       29.84S
BINGHAMTON     CLEAR     55  49  80 CALM      29.84F
MONTICELLO     PTCLDY    52  48  87 S5        29.90S
$$

NYZ026>034-041>043-087-240400-
NORTH


CITY           SKY/WX    TMP DP  RH WIND       PRES   REMARKS
WATERTOWN      CLEAR     39  37  92 S3        29.87R
FORT DRUM      NOT AVBL
OGDENSBURG     FAIR      38  36  92 NW8       29.85R WCI  32
MASSENA        CLEAR     44  37  76 W7        29.84R
SARANAC LAKE   MOCLDY    47  44  90 W6        29.80R
PLATTSBURGH    CLEAR     52  44  74 W3        29.79R
$$

NYZ001>004-010>016-019>021-085-240400-
WEST


CITY           SKY/WX    TMP DP  RH WIND       PRES   REMARKS
NIAGARA FALLS  CLOUDY    44  37  76 CALM      29.88S
BUFFALO        CLOUDY    47  40  76 N5        29.88R
DUNKIRK        MOCLDY    44  43  96 NE5       29.87R FOG
JAMESTOWN        N/A     52  46  82 CALM      29.85S
WELLSVILLE     PTCLDY    53  50  89 CALM      29.87S FOG
ROCHESTER      CLOUDY    49  40  71 N6        29.89R
PENN YAN       MOCLDY    52  43  71 N5        29.88R
$$

             KEY
       WCI = WIND CHILL INDEX
       VSB = VISIBILITY
       HX  = HEAT INDEX
$$




USA.gov is the U.S. government's official web portal to all federal, state and local government web resources and services.